Hourly Data Report for December 10, 2003

TORONTO CITY
ONTARIO

43°40'00.000" N
79°24'00.000" W
112.50 m
6158355
71508
XTO

Download Data

Hourly Data (December 2003)
Hourly Data Report for December 10, 2003
TIME
LST
Temp Definition
°C
Dew Point Definition
°C
Rel Hum Definition
%
Precip. Amount Definition
mm

Wind Dir Definition
10's deg

Wind Spd Definition
km/h
Visibility Definition
km
Stn Press Definition
kPa
Hmdx Definition


Wind Chill Definition


Weather Definition


00:00 3.2 1.4 88   LegendMM LegendMM LegendMM 100.38     LegendNANA
01:00 3.4 1.6 88   LegendMM LegendMM LegendMM 100.27     LegendNANA
02:00 3.3 1.7 89   LegendMM LegendMM LegendMM 100.22     LegendNANA
03:00 3.1 1.6 90   LegendMM LegendMM LegendMM 100.12     LegendNANA
04:00 3.1 1.6 90   LegendMM LegendMM LegendMM 100.03     LegendNANA
05:00 3.2 1.7 90   LegendMM LegendMM LegendMM 99.98     LegendNANA
06:00 3.6 2.6 93   LegendMM LegendMM LegendMM 99.94     LegendNANA
07:00 4.0 3.1 94   LegendMM LegendMM LegendMM 99.89     LegendNANA
08:00 4.4 3.1 91   LegendMM LegendMM LegendMM 99.82     LegendNANA
09:00 4.7 3.1 89   LegendMM LegendMM LegendMM 99.77     LegendNANA
10:00 5.1 3.1 87   LegendMM LegendMM LegendMM 99.73     LegendNANA
11:00 6.1 3.1 81   LegendMM LegendMM LegendMM 99.60     LegendNANA
12:00 6.8 2.5 74   LegendMM LegendMM LegendMM 99.50     LegendNANA
13:00 6.3 2.4 76   LegendMM LegendMM LegendMM 99.36     LegendNANA
14:00 6.6 2.1 73   LegendMM LegendMM LegendMM 99.23     LegendNANA
15:00 6.8 2.5 74   LegendMM LegendMM LegendMM 99.19     LegendNANA
16:00 7.3 2.8 73   LegendMM LegendMM LegendMM 99.10     LegendNANA
17:00 8.0 2.7 69   LegendMM LegendMM LegendMM 99.04     LegendNANA
18:00 8.2 2.6 68   LegendMM LegendMM LegendMM 98.96     LegendNANA
19:00 6.9 3.5 79   LegendMM LegendMM LegendMM 98.88     LegendNANA
20:00 5.6 4.0 89   LegendMM LegendMM LegendMM 98.78     LegendNANA
21:00 5.1 4.2 94   LegendMM LegendMM LegendMM 98.70     LegendNANA
22:00 5.3 4.8 97   LegendMM LegendMM LegendMM 98.66     LegendNANA
23:00 5.6 5.3 98   LegendMM LegendMM LegendMM 98.61     LegendNANA

Notes on Data Quality.

Legend

  • E = Estimated
  • M = Missing
  • NA = Not Available*
  • [empty] = Indicates an unobserved value
Date modified: